Location: Newark
(44.6028°N, 124.0883°W)
Time: 13:33:04
(UTC+00:00)

Vanguard 1 Rocket - Pass Details

Date: 23 October 2019
Orbit: 651 x 4226 km, 34.3° (Epoch: 20 November)

Event Time Altitude Azimuth Distance (km) Brightness Sun altitude
Rises 23:33:49 0° 280° (W) 7,111 12.7 16.0°
Reaches altitude 10° 23:38:25 10° 274° (W) 6,474 12.7 15.4°
Maximum altitude 23:58:52 42° 213° (SSW) 5,186 12.2 12.3°
Drops below altitude 10° 00:21:03 10° 152° (SSE) 6,899 11.9 8.8°
Sets 00:26:18 0° 146° (SE) 7,584 12.0 7.9°
